Location: Vicenza
(45.5500°N, 11.5500°E)
Time: 19:53:35
(UTC+02:00)

ISS - Visible Passes

Search period start: 15 September 2019 00:00
Search period end: 25 September 2019 00:00
Orbit: 411 x 421 km, 51.6° (Epoch: 15 September)

Date Brightness Start Highest point End Pass type
(mag) Time Alt. Az. Time Alt. Az. Time Alt. Az.
15 Sep -2.7 05:32:39 26° SW 05:32:39 26° SW 05:35:28 10° SSE visible
16 Sep -1.0 04:47:24 10° SE 04:47:24 10° SE 04:47:28 10° SE visible
18 Sep -1.2 21:24:29 10° SW 21:24:55 13° SW 21:24:55 13° SW visible
19 Sep -2.8 20:36:25 10° SSW 20:39:16 28° SE 20:39:16 28° SE visible
20 Sep -2.1 19:48:41 10° S 19:50:58 17° SE 19:53:16 10° E visible
20 Sep -2.6 21:24:02 10° WSW 21:26:18 40° WSW 21:26:18 40° WSW visible
21 Sep -3.9 20:35:33 10° SW 20:38:52 69° SSE 20:40:10 33° ENE visible
21 Sep -0.5 22:12:43 10° W 22:13:05 12° WNW 22:13:05 12° WNW visible
22 Sep -3.3 19:47:15 10° SW 19:50:24 42° SE 19:53:34 10° ENE visible
22 Sep -2.5 21:23:59 10° W 21:26:47 39° NW 21:26:47 39° NW visible
23 Sep -3.2 20:35:17 10° WSW 20:38:33 56° NNW 20:40:20 24° NE visible
23 Sep -0.4 22:12:49 10° WNW 22:13:14 12° WNW 22:13:14 12° WNW visible
24 Sep -3.7 19:46:40 10° WSW 19:49:59 82° NNW 19:53:19 10° ENE visible
24 Sep -2.0 21:24:04 10° WNW 21:26:40 29° NNW 21:26:40 29° NNW visible
